sat.trackr.live / text

‹ back to catalog

PTD-4 (LISA-T)

NORAD 60565 · 2024-149DB

PAYLOAD ACTIVE UNKNOWN

§ Identity

Operator
Country
US
Launch date
2024-08-16
Launch site
AFWTR
Launch vehicle
Mass (kg)
RCS (m²)

External: N2YO · Heavens-Above · Gunter

§ Orbital elements

Epoch: 2026-09-21T23:50:45.090816Z

Period
94.38 min
Inclination
97.6937°
Eccentricity
0.0003231
Mean motion
15.25675955 rev/d
Perigee alt
486.5 km
Apogee alt
491.0 km
Semi-major
6,866.9 km
B*
6.7834e-4
RAAN
356.3854°
Arg perigee
76.2770°
Mean anomaly
283.8827°
Rev number
11,556

§ Raw data

PTD-4 (LISA-T)1 60565U 24149DB  26264.99357744  .00017223  00000+0  67834-3 0  99952 60565  97.6937 356.3854 0003231  76.2770 283.8827 15.25675955115563

JSON: /api/v1/satellites/60565 · /tle

For live sub-satellite position, see the globe view (requires WebGL).

§ Visibility from observer

Set your observer location to see the next 7 days of passes ≥ 10°. The values pass through the URL so the page stays shareable.

No JS? Fill the form by hand. The geolocation button needs JavaScript.

§ Radio — SatNOGS DB

ModeDescriptionDownlinkUplink
FSK Mode U - FSK9k6 401.205 MHz

1 transmitter · refreshed weekly from db.satnogs.org